Lexington Weather

Lexington, Massachusetts, USA

68°F
7/3/2020 12:31pm 
  • Lexington Conditions: Overcast
  • Temperature: 67.8°F / 19.9°CColder 1.3°F than last hour.
  • Dew Point: 63.9°FDecreased 1.4°Fsince last hour.
  • Relative Humidity: 87%Decreased 1.0% since last hour.
  • Wind: Wind from N N 1 mph, 10-min avg: 1 mph, gust: 3 mph
  • Barometer: 29.86 in Steady
  • Visibility: 10 miles
  • Rain Today: 0.00 in
  •   

Regional Weather Roundup
for Boston / Norton, MA

        
000
ASUS41 KBOX 290804
RWRBOX

REGIONAL WEATHER ROUNDUP
NATIONAL WEATHER SERVICE BOSTON/NORTON MA
400 AM EDT MON JUN 29 2020

NOTE:  "FAIR" INDICATES FEW OR NO CLOUDS BELOW 12,000 FEET WITH NO 
SIGNIFICANT WEATHER AND/OR OBSTRUCTIONS TO VISIBILITY.

MAZALL-290900-
EASTERN MASSACHUSETTS
  
CITY           SKY/WX    TMP DP  RH WIND       PRES   REMARKS
BOSTON         CLOUDY    65  63  93 NE6       29.75R                  
BEVERLY        CLOUDY    67  65  93 CALM      29.73F                  
LAWRENCE       CLOUDY    68  66  93 CALM      29.76S                  
BEDFORD        RAIN      67  64  90 CALM      29.73S                  
BLUE HILL        N/A     64  62  93 E5        29.73F                  
NORWOOD        FOG       62  60  93 CALM      29.73S VSB 1/4          
MARSHFIELD     CLOUDY    66  66 100 CALM      29.72S FOG              
PLYMOUTH       CLOUDY    69  67  93 CALM      29.71F                  
TAUNTON        CLOUDY    68  65  90 CALM      29.72F                  
NEW BEDFORD    CLOUDY    70  70 100 SE7       29.71R                  
$$

MAZALL-290900-
CAPE COD AND THE ISLANDS
  
CITY           SKY/WX    TMP DP  RH WIND       PRES   REMARKS
FALMOUTH       FOG       68  68 100 S8        29.72F VSB 1/2          
HYANNIS        CLOUDY    72  69  90 S7        29.71F FOG              
CHATHAM        CLOUDY    67  64  90 S5        29.73F FOG              
PROVINCETOWN   CLOUDY    68  68 100 S7        29.73F                  
NANTUCKET      FOG       65  64  97 S8        29.73S VSB 1/2          
MARTHAS VNYRD  FOG       67  67 100 S6        29.72F VSB 3/4          
$$
 
MAZALL-290900-
CENTRAL AND WESTERN MASSACHUSETTS
  
CITY           SKY/WX    TMP DP  RH WIND       PRES   REMARKS
WORCESTER      CLOUDY    65  63  93 CALM      29.76F                  
FITCHBURG      CLOUDY    67  65  93 CALM      29.75S                  
ORANGE         CLOUDY    67  64  90 CALM      29.76F                  
SPRINGFIELD    CLOUDY    65  65 100 NW3       29.72F                  
WESTFIELD      PTCLDY    64  63  96 NE5       29.74S                  
NORTH ADAMS    CLOUDY    64  62  93 N3        29.77S                  
PITTSFIELD     CLOUDY    62  61  96 CALM      29.78R FOG              
$$
 
RIZALL-290900-
RHODE ISLAND
  
CITY           SKY/WX    TMP DP  RH WIND       PRES   REMARKS
PROVIDENCE     CLOUDY    69  67  93 NW5       29.73S                  
NEWPORT        CLOUDY    70  68  93 CALM      29.72S FOG              
BLOCK ISLAND   LGT RAIN  68  68 100 S7        29.73S VSB 1/4          
SMITHFIELD     CLOUDY    65  65 100 CALM      29.74S                  
WESTERLY       CLOUDY    71  66  84 CALM      29.73S HAZE             
$$
 
CTZALL-290900-
CONNECTICUT
  
CITY           SKY/WX    TMP DP  RH WIND       PRES   REMARKS
BRADLEY INTL   PTCLDY    63  63 100 CALM      29.72F                  
HARTFORD       CLEAR     69  66  90 W3        29.72S                  
BRIDGEPORT     CLEAR     69  66  90 CALM      29.73R                  
DANBURY        CLEAR     61  60  97 CALM      29.77R                  
GROTON         CLOUDY    68  68 100 N3        29.72R FOG              
NEW HAVEN      FOG       67  65  93 CALM      29.73R VSB 1/2          
CHESTER        NOT AVBL                                               
MERIDEN        FOG       66  65  96 CALM      29.73S VSB 1/4          
WILLIMANTIC    CLOUDY    69  68  96 N3        29.73F FOG              
OXFORD         CLEAR     65  65 100 W3        29.76S                  
$$

MEZ002-015-021-024-NHZ003-005-008-011-012-014-VTZ005-008-290900-
NORTHERN NEW ENGLAND
  
CITY           SKY/WX    TMP DP  RH WIND       PRES   REMARKS
PORTLAND ME    RAIN      65  62  90 E9        29.76  FOG              
BANGOR ME      CLOUDY    64  61  90 SE5       29.84R                  
CONCORD NH     CLOUDY    64  64 100 NW5       29.76R                  
MANCHESTER NH  CLOUDY    69  66  90 NW5       29.73F                  
NASHUA NH      CLOUDY    68  68 100 NW5       29.75S                  
PORTSMOUTH NH  CLOUDY    67  66  97 CALM      29.72  FOG              
JAFFREY NH     CLOUDY    65  63  93 CALM      29.77F                  
KEENE NH       CLOUDY    66  64  93 N3        29.75F                  
BURLINGTON VT  CLOUDY    67  64  90 N7        29.78R                  
MT. WASHINGTON LGT RAIN  46  46 100 S5          N/A  VSB 1/8          
$$

NYZ052-076-290900-
EASTERN NEW YORK
  
CITY           SKY/WX    TMP DP  RH WIND       PRES   REMARKS
ALBANY         CLOUDY    67  63  87 NW5       29.78R                  
NEW YORK CITY  PTCLDY    74  65  73 NW10      29.74R                  
$$
 
ANZALL-290900-
MARINE OBSERVATIONS
  
STATION/POSITION TIME  TEMP    WIND        PRES    VSBY  WAVE
                       AIR SEA DIR/SP/G                  HT/PER
                 (UTC) (F)     (DEG/KT/KT) (MB)    (MI)  (FT/S)
BOSTON BUOY      0750   67 68   CALM  /  2 1005.8R         2/ 7
BUZZARDS BAY     0700           90/  5/  6 1007.6F
NANTUCKET SOUND  0750   67 70  180/  8/ 10 1005.8F         1/ 3
MASS BAY-STELLWA 0704   65     250/  2/  4 1004.8F  1 7/8  2/ 6
ISLE OF SHOALS   0700   65     350/  3/  4 1006.2F
S OF BLOCK IS    0726      70                N/A           3/11
$$

......................KEY.........................
  SKY/WX - SKY CONDITION/PRESENT WEATHER
  TMP    - TEMPERATURE IN FAHRENHEIT
  DWPT   - DEWPOINT IN FAHRENHEIT
  RH     - RELATIVE HUMIDITY IN PERCENT
  WIND   - DIRECTION AND SPEED IN MPH
  PRES   - MEAN SEA LEVEL PRESSURE IN INCHES OF HG
  WCI    - WIND CHILL INDEX
  VSB    - VISIBILITY IN MILES
  HX     - HEAT INDEX
  TC     - TEMPERATURE IN CELSIUS
  VRB    - VARIABLE WIND DIRECTION
  N/A    - NOT AVAILABLE
  
      

Other recent Regional Weather Roundups

Fri Jul 3, 12:04pm

Fri Jul 3, 11:04am

Fri Jul 3, 10:04am

Fri Jul 3, 9:04am

Fri Jul 3, 8:04am

Fri Jul 3, 7:04am

Fri Jul 3, 6:04am

Fri Jul 3, 5:04am

Fri Jul 3, 4:04am

Fri Jul 3, 3:04am

Fri Jul 3, 2:04am

Fri Jul 3, 1:04am

Fri Jul 3, 12:04am

Thu Jul 2, 11:05pm

Thu Jul 2, 10:04pm

Thu Jul 2, 9:04pm

Thu Jul 2, 8:04pm

Thu Jul 2, 7:05pm

Thu Jul 2, 6:04pm

Thu Jul 2, 5:05pm

Thu Jul 2, 4:04pm

Thu Jul 2, 3:04pm

Thu Jul 2, 2:04pm

Thu Jul 2, 1:05pm

Thu Jul 2, 12:04pm

Thu Jul 2, 11:04am

Thu Jul 2, 10:05am

Thu Jul 2, 9:05am

Thu Jul 2, 8:04am

Thu Jul 2, 7:04am

Thu Jul 2, 6:05am

Thu Jul 2, 5:04am

Thu Jul 2, 4:04am

Thu Jul 2, 3:04am

Thu Jul 2, 2:04am

Thu Jul 2, 1:04am

Thu Jul 2, 12:05am

Wed Jul 1, 11:05pm

Wed Jul 1, 10:04pm

Wed Jul 1, 9:04pm

Wed Jul 1, 8:04pm

Wed Jul 1, 7:04pm

Wed Jul 1, 6:04pm

Wed Jul 1, 5:05pm

Wed Jul 1, 4:04pm

Wed Jul 1, 3:04pm

Wed Jul 1, 2:04pm

Wed Jul 1, 1:04pm

Wed Jul 1, 12:04pm

Wed Jul 1, 11:04am

Wed Jul 1, 10:04am

Wed Jul 1, 9:04am

Wed Jul 1, 8:05am

Wed Jul 1, 7:04am

Wed Jul 1, 6:04am

Wed Jul 1, 5:04am

Wed Jul 1, 4:04am

Wed Jul 1, 3:04am

Wed Jul 1, 2:04am

Wed Jul 1, 1:04am

Wed Jul 1, 12:04am

Tue Jun 30, 11:04pm

Tue Jun 30, 10:05pm

Tue Jun 30, 9:04pm

Tue Jun 30, 8:05pm

Tue Jun 30, 7:05pm

Tue Jun 30, 6:04pm

Tue Jun 30, 5:04pm

Tue Jun 30, 4:04pm

Tue Jun 30, 3:04pm

Tue Jun 30, 2:04pm

Tue Jun 30, 1:04pm

Tue Jun 30, 12:04pm

Tue Jun 30, 11:04am

Tue Jun 30, 10:04am

Tue Jun 30, 9:04am

Tue Jun 30, 8:04am

Tue Jun 30, 7:04am

Tue Jun 30, 6:04am

Tue Jun 30, 5:04am

Tue Jun 30, 4:04am

Tue Jun 30, 3:04am

Tue Jun 30, 2:04am

Tue Jun 30, 1:04am

Tue Jun 30, 12:04am

Mon Jun 29, 11:04pm

Mon Jun 29, 10:05pm

Mon Jun 29, 9:04pm

Mon Jun 29, 8:05pm

Mon Jun 29, 7:04pm

Mon Jun 29, 6:04pm

Mon Jun 29, 5:04pm

Mon Jun 29, 4:05pm

Mon Jun 29, 3:04pm

Mon Jun 29, 2:04pm

Mon Jun 29, 1:04pm

Mon Jun 29, 12:04pm

Mon Jun 29, 11:04am

Mon Jun 29, 10:04am

Mon Jun 29, 9:04am

Mon Jun 29, 8:04am

Mon Jun 29, 7:04am

Mon Jun 29, 6:04am

Mon Jun 29, 5:04am

Mon Jun 29, 3:04am

Mon Jun 29, 2:04am

Mon Jun 29, 1:04am

Mon Jun 29, 12:04am

Sun Jun 28, 11:05pm

Sun Jun 28, 10:04pm

Sun Jun 28, 9:05pm

Sun Jun 28, 8:04pm

Sun Jun 28, 7:04pm

Sun Jun 28, 6:04pm

Sun Jun 28, 5:04pm

Sun Jun 28, 4:04pm

Sun Jun 28, 3:04pm

Sun Jun 28, 2:05pm

Sun Jun 28, 1:04pm

Sun Jun 28, 12:04pm

Sun Jun 28, 11:04am

Sun Jun 28, 10:04am

Sun Jun 28, 9:04am

Sun Jun 28, 8:04am

Sun Jun 28, 7:04am

Sun Jun 28, 6:04am

Sun Jun 28, 5:04am

Sun Jun 28, 4:04am

Sun Jun 28, 3:04am

Sun Jun 28, 2:05am

Sun Jun 28, 1:04am

Sun Jun 28, 12:05am

Sat Jun 27, 11:04pm

Sat Jun 27, 10:04pm

Sat Jun 27, 9:04pm

Sat Jun 27, 8:04pm

Sat Jun 27, 7:04pm

Sat Jun 27, 6:04pm

Sat Jun 27, 5:04pm

Sat Jun 27, 4:05pm

Sat Jun 27, 3:04pm

Sat Jun 27, 2:04pm

Sat Jun 27, 1:05pm

Sat Jun 27, 12:04pm

Sat Jun 27, 11:04am

Sat Jun 27, 10:04am

Sat Jun 27, 9:04am

Sat Jun 27, 8:04am

Sat Jun 27, 7:04am

Sat Jun 27, 6:04am

Sat Jun 27, 5:05am

Sat Jun 27, 4:04am

Sat Jun 27, 3:04am

Sat Jun 27, 2:04am

Sat Jun 27, 1:04am

Sat Jun 27, 12:04am

Fri Jun 26, 11:04pm

Fri Jun 26, 10:04pm

Fri Jun 26, 9:05pm

Fri Jun 26, 8:04pm

Fri Jun 26, 7:05pm

Fri Jun 26, 6:04pm

Fri Jun 26, 5:04pm

Fri Jun 26, 4:04pm

Fri Jun 26, 3:04pm

Fri Jun 26, 2:05pm

Fri Jun 26, 1:04pm

Meta data:

ID: d1d771ce-794b-4eee-b85c-6a0c7bfc6590
Link: https://api.weather.gov/products/d1d771ce-794b-4eee-b85c-6a0c7bfc6590